Location: Coffee Creek Observatory
(38.8077°N, 94.7179°W)
Time: 22:36:14
(UTC-05:00)

Daily predictions for brighter satellites

Satellite Brightness Start Highest point End
(mag) Time Altitude Azimuth Time Altitude Azimuth Time Altitude Azimuth
Cosmos 2123 Rocket 4.0 20:08:58 10° N 20:15:09 70° E 20:21:18 10° SSE
Cosmos 1937 Rocket 4.5 20:10:51 10° N 20:15:27 29° ENE 20:20:03 10° ESE
Cosmos 1544 Rocket 4.3 20:11:51 10° SSW 20:16:12 61° W 20:20:36 10° N
Tiangong 1 1.3 20:14:43 10° WNW 20:17:48 61° NNE 20:20:52 10° E
Helios 1A 3.1 20:19:16 10° SSE 20:23:26 85° WSW 20:27:40 10° NNW
FREGAT/IRIS 4.1 20:21:20 10° S 20:24:20 42° W 20:27:21 10° NNW
Cosmos 1500 3.9 20:21:16 10° SSE 20:24:38 32° E 20:28:01 10° NNE
Cosmos 2227 Rocket 2.8 20:21:31 10° NNW 20:27:06 62° WSW 20:32:39 10° S
Cosmos 2298 Rocket 4.2 20:23:49 10° N 20:29:05 59° ENE 20:34:19 10° SSE
Cosmos 2322 Rocket 3.7 20:27:01 10° SE 20:29:37 13° E 20:32:13 10° ENE
Cosmos 1934 Rocket 4.5 20:24:35 10° SSW 20:30:42 68° W 20:36:57 10° N
ERS-1 Rocket 4.4 20:29:00 10° ESE 20:32:35 20° ENE 20:36:12 10° NNE
CZ-2D R/B 3.5 20:31:38 10° SSE 20:35:21 48° ENE 20:39:07 10° N
EO 1 Delta rocket 4.2 20:32:00 10° NNE 20:36:54 63° E 20:42:48 10° S
Resurs 01 Rocket 2.5 20:35:53 10° S 20:40:12 54° W 20:44:35 10° NNW
Cosmos 1975 2.9 20:36:29 10° S 20:40:35 89° ESE 20:44:42 10° N
Cosmos 2297 Rocket 2.6 20:36:00 10° NNW 20:41:37 66° WSW 20:47:12 10° S
Lacrosse 5 rocket 3.3 20:39:33 10° WNW 20:42:28 22° WSW 20:45:20 10° S
Cosmos 1763 Rocket 3.9 20:39:26 10° SSE 20:44:05 37° ESE 20:48:44 10° NE
Cosmos 1153 Rocket 4.4 20:41:12 10° S 20:47:22 79° E 20:53:31 10° N
Cosmos 1515 3.6 20:47:11 10° N 20:51:02 78° E 20:54:51 10° S
Cosmos 1447 Rocket 4.5 20:46:22 10° N 20:52:43 80° E 20:59:04 10° S
Cosmos 2150 Rocket 3.9 20:48:27 10° NNW 20:53:38 85° ENE 20:58:49 10° SSE
Cosmos 2084 4.3 20:53:02 10° NW 20:57:00 47° WSW 21:01:10 10° SSE
BREEZE-M DEB (TANK) 3.5 20:55:57 10° NNW 20:57:47 21° NNE 20:59:21 15° ENE
Cosmos 1825 Rocket 4.1 20:54:58 10° N 20:59:07 39° ENE 21:01:32 21° SE
Cosmos 1898 Rocket 3.6 20:55:33 10° NNW 21:00:51 78° WSW 21:06:04 10° SSE
Cosmos 1802 Rocket 4.1 21:00:07 10° SSE 21:06:19 55° E 21:12:34 10° NNE
Cosmos 2016 Rocket 4.2 21:02:32 10° SSE 21:08:20 46° E 21:14:13 10° NNE
Cosmos 841 Rocket 3.5 21:05:06 10° S 21:10:13 59° ESE 21:15:21 10° NNE
Cosmos 1743 2.6 21:07:34 10° S 21:11:27 70° E 21:15:21 10° NNE
Cosmos 1953 Rocket 4.1 21:07:54 10° N 21:12:07 40° ENE 21:13:40 30° ESE
H-2A R/B 3.3 21:12:09 21° ENE 21:12:25 21° ENE 21:15:35 10° NNE
Cosmos 1697 Rocket 3.5 21:07:00 10° SW 21:12:31 54° WNW 21:18:04 10° NNE
Cosmos 2173 Rocket 3.9 21:13:30 10° S 21:19:51 81° E 21:26:11 10° N
Cosmos 2098 Rocket 4.2 21:13:48 10° SSE 21:19:59 43° E 21:25:11 10° NNE
Cosmos 1939 Rocket 3.2 21:22:25 39° ESE 21:23:23 47° ENE 21:27:24 10° N
USA 186 3.2 21:24:26 14° SSW 21:26:34 32° W 21:29:07 10° NNW
SJ-11-01 4.2 21:24:29 29° SSE 21:26:53 73° ENE 21:31:33 10° N
Lacrosse 5 2.6 21:22:27 10° NW 21:27:17 46° SW 21:30:12 22° S
Cosmos 967 Rocket 4.4 21:22:02 10° NNW 21:28:24 85° ENE 21:31:50 29° SSE
SL-16 R/B 2.5 21:23:09 10° S 21:28:27 43° ESE 21:33:48 10° NE
BREEZE-M TANK 3.0 21:19:48 10° WNW 21:29:56 77° NNE 21:31:14 41° E
Cosmos 1758 Rocket 3.6 21:25:59 10° N 21:30:14 53° E 21:30:56 47° ESE
BREEZE-M DEB (TANK) 4.5 21:31:01 10° NW 21:34:57 54° NE 21:40:18 27° E
SPOT 5 3.4 21:36:37 37° E 21:36:58 37° ENE 21:41:19 10° N
Cosmos 1980 Rocket 2.9 21:31:55 10° SW 21:37:28 56° WNW 21:43:05 10° NNE
YAOGAN 11 4.1 21:35:47 34° S 21:37:45 85° WSW 21:42:12 10° NNW
Cosmos 2100 Rocket 4.4 21:34:01 10° SSW 21:40:13 64° W 21:46:24 10° N
YAOGAN 6 4.4 21:42:51 21° NE 21:42:51 21° NE 21:44:38 10° NNE
ALOS 4.2 21:37:40 10° SSW 21:41:37 27° W 21:45:34 10° NW
CZ-4 DEB 3.5 21:47:38 50° W 21:47:38 50° W 21:50:36 10° NNW
deb Chang Zheng 4 3.7 21:43:56 10° NNE 21:47:57 57° ENE 21:47:57 57° ENE
Cosmos 1666 2.6 21:48:56 78° N 21:48:56 78° N 21:52:30 10° N
RESURS DK-1 4.4 21:47:51 10° NW 21:51:13 24° WSW 21:53:33 15° SSW
Tiangong 1 3.2 21:51:27 10° W 21:53:02 21° WSW 21:53:02 21° WSW
Envisat 2.9 21:52:52 48° S 21:54:21 87° WSW 21:59:28 10° NNW
Cosmos 1842 3.4 21:50:43 10° N 21:54:09 67° N 21:54:09 67° N
Tsikada Rocket 4.0 21:50:21 10° N 21:56:45 67° E 21:58:25 49° SE
OAO 2 Rocket 4.1 21:52:20 10° W 21:56:54 36° SSW 21:56:55 36° SSW
Cosmos 2058 Rocket 3.2 21:59:24 48° SSW 22:00:34 73° W 22:05:05 10° N
Cosmos 2263 Rocket 2.8 21:56:53 10° N 22:02:03 39° ENE 22:02:03 39° ENE
Cosmos 1340 4.2 22:01:51 10° NNW 22:05:16 32° W 22:06:07 28° WSW
Cosmos 1816 Rocket 4.4 22:02:17 10° N 22:08:39 66° E 22:09:23 60° ESE
Cosmos 1725 Rocket 4.0 22:07:38 30° S 22:10:56 83° W 22:17:13 10° N
ERS-1 Rocket 3.8 22:09:01 30° SSW 22:11:01 45° W 22:15:50 10° NNW
MetOp-A 4.0 22:12:35 78° E 22:12:45 79° ENE 22:18:07 10° N
Cosmos 2322 Rocket 2.3 22:07:19 10° SSW 22:12:54 74° WNW 22:18:33 10° NNE
BREEZE-M DEB (TANK) 4.1 22:02:58 10° WSW 22:15:26 58° NNW 22:17:26 33° NE
Cosmos 2233 Rocket 3.8 22:30:37 84° SSE 22:30:49 87° E 22:37:06 10° N
H-2A R/B 3.5 22:35:08 25° NNE 22:35:08 25° NNE 22:37:33 10° N
Meteor 2-5 Rocket 4.1 22:35:03 10° N 22:39:49 56° NNE 22:39:49 56° NNE
USA 215 4.4 22:39:53 28° NE 22:41:28 31° NNE 22:47:02 10° NNW
H-2A R/B 4.0 22:49:18 25° WNW 22:49:18 25° WNW 22:51:52 10° NW
SPOT 1/Viking Rocket 4.3 22:53:57 49° NW 22:53:57 49° NW 22:57:51 10° NNW
ARGOS 4.0 23:01:56 48° NW 23:01:56 48° NW 23:05:57 10° NNW
Cosmos 1844 Rocket 4.4 23:07:36 10° N 23:10:21 24° NNE 23:10:21 24° NNE
SL-16 R/B 4.1 23:08:01 10° WSW 23:12:43 26° WNW 23:17:27 10° N
Cosmos 2360 Rocket 3.7 23:24:17 31° N 23:24:17 31° N 23:27:22 10° NNE
Terra 4.0 23:25:58 22° NNW 23:25:58 22° NNW 23:27:38 10° NNW
Cosmos 2263 Rocket 4.2 23:41:12 10° NW 23:43:45 21° WNW 23:43:45 21° WNW
